TimeCDT,TemperatureF,Dew PointF,Humidity,Sea Level PressureIn,VisibilityMPH,Wind Direction,Wind SpeedMPH,Gust SpeedMPH,PrecipitationIn,Events,Conditions,WindDirDegrees,DateUTC
12:15 AM,62.6,59.0,88,29.90,10.0,NNE,4.6,-,N/A,Thunderstorm,Overcast,20,2013-04-23 05:15:00
12:35 AM,62.6,59.0,88,29.88,10.0,ESE,5.8,-,N/A,,Overcast,120,2013-04-23 05:35:00
12:55 AM,62.6,59.0,88,29.89,10.0,NNW,5.8,-,N/A,,Overcast,330,2013-04-23 05:55:00
1:15 AM,53.6,53.6,100,29.90,5.0,NNW,19.6,23.0,N/A,,Overcast,340,2013-04-23 06:15:00
1:35 AM,46.4,46.4,100,29.91,8.0,North,19.6,27.6,N/A,,Overcast,350,2013-04-23 06:35:00
1:55 AM,44.6,44.6,100,29.91,7.0,North,19.6,27.6,N/A,,Overcast,360,2013-04-23 06:55:00
2:15 AM,44.6,44.6,100,29.92,10.0,North,21.9,27.6,N/A,,Overcast,360,2013-04-23 07:15:00
2:35 AM,44.6,44.6,100,29.93,10.0,North,21.9,29.9,N/A,,Overcast,360,2013-04-23 07:35:00
2:55 AM,41.0,41.0,100,29.94,8.0,North,24.2,33.4,N/A,,Overcast,360,2013-04-23 07:55:00
3:15 AM,41.0,41.0,100,29.92,8.0,North,21.9,41.4,N/A,,Overcast,360,2013-04-23 08:15:00
3:35 AM,39.2,39.2,100,29.94,9.0,North,18.4,34.5,N/A,,Overcast,360,2013-04-23 08:35:00
3:55 AM,39.2,39.2,100,29.95,10.0,North,23.0,29.9,N/A,,Overcast,360,2013-04-23 08:55:00
4:15 AM,37.4,37.4,100,29.95,10.0,North,21.9,35.7,N/A,,Overcast,10,2013-04-23 09:15:00
4:35 AM,37.4,37.4,100,29.95,6.0,North,24.2,35.7,N/A,,Overcast,360,2013-04-23 09:35:00
4:55 AM,37.4,37.4,100,29.96,5.0,North,24.2,38.0,N/A,,Overcast,360,2013-04-23 09:55:00
5:15 AM,37.4,37.4,100,29.97,5.0,North,27.6,34.5,N/A,,Overcast,360,2013-04-23 10:15:00
5:55 AM,35.6,35.6,100,29.98,3.0,North,24.2,34.5,N/A,Rain,Light Rain,360,2013-04-23 10:55:00
6:15 AM,37.4,37.4,100,29.99,2.5,North,21.9,29.9,N/A,Rain,Light Rain,360,2013-04-23 11:15:00
6:35 AM,35.6,35.6,100,30.00,3.0,North,19.6,32.2,0.01,Rain,Light Rain,350,2013-04-23 11:35:00
6:55 AM,35.6,35.6,100,30.01,2.5,North,27.6,32.2,0.02,,Overcast,350,2013-04-23 11:55:00
7:15 AM,35.6,35.6,100,30.02,3.0,North,19.6,29.9,N/A,Rain,Light Rain,350,2013-04-23 12:15:00
7:35 AM,35.6,35.6,100,30.03,4.0,North,25.3,32.2,0.01,Rain,Light Rain,10,2013-04-23 12:35:00
7:55 AM,35.6,35.6,100,30.04,3.0,North,24.2,31.1,0.01,Rain,Light Rain,360,2013-04-23 12:55:00
8:15 AM,35.6,35.6,100,30.05,2.5,North,23.0,35.7,N/A,Rain,Light Rain,360,2013-04-23 13:15:00
8:35 AM,35.6,35.6,100,30.06,2.5,North,24.2,36.8,N/A,Rain,Light Rain,360,2013-04-23 13:35:00
8:55 AM,35.6,35.6,100,30.06,4.0,North,21.9,34.5,N/A,,Mostly Cloudy,360,2013-04-23 13:55:00
9:15 AM,35.6,35.6,100,30.07,2.5,North,21.9,34.5,N/A,Rain,Light Rain,360,2013-04-23 14:15:00
9:35 AM,35.6,35.6,100,30.08,2.5,North,19.6,35.7,N/A,Rain,Light Rain,360,2013-04-23 14:35:00
9:55 AM,35.6,35.6,100,30.09,2.5,North,28.8,36.8,N/A,Rain,Light Rain,360,2013-04-23 14:55:00
10:15 AM,35.6,35.6,100,30.10,1.5,North,24.2,33.4,0.01,,Mostly Cloudy,360,2013-04-23 15:15:00
10:35 AM,35.6,35.6,100,30.10,3.0,North,19.6,27.6,0.01,,Scattered Clouds,360,2013-04-23 15:35:00
10:55 AM,35.6,35.6,100,30.11,3.0,North,21.9,28.8,0.01,,Mostly Cloudy,360,2013-04-23 15:55:00
11:15 AM,35.6,35.6,100,30.13,3.0,North,18.4,29.9,N/A,,Mostly Cloudy,350,2013-04-23 16:15:00
11:35 AM,35.6,35.6,100,30.13,3.0,North,23.0,34.5,N/A,,Mostly Cloudy,360,2013-04-23 16:35:00
11:55 AM,35.6,35.6,100,30.13,5.0,North,21.9,29.9,N/A,,Mostly Cloudy,360,2013-04-23 16:55:00
12:15 PM,35.6,35.6,100,30.13,4.0,North,23.0,28.8,N/A,Rain,Light Rain,350,2013-04-23 17:15:00
12:35 PM,35.6,35.6,100,30.13,5.0,North,23.0,32.2,N/A,Rain,Light Rain,360,2013-04-23 17:35:00
12:55 PM,35.6,35.6,100,30.13,5.0,North,18.4,27.6,N/A,,Scattered Clouds,350,2013-04-23 17:55:00
1:15 PM,35.6,35.6,100,30.13,4.0,North,21.9,29.9,N/A,,Mostly Cloudy,360,2013-04-23 18:15:00
1:35 PM,35.6,35.6,100,30.13,5.0,North,19.6,28.8,N/A,,Mostly Cloudy,360,2013-04-23 18:35:00
1:55 PM,37.4,35.6,93,30.13,5.0,North,20.7,27.6,N/A,,Mostly Cloudy,360,2013-04-23 18:55:00
2:15 PM,35.6,35.6,100,30.14,4.0,North,20.7,28.8,N/A,Rain,Light Rain,350,2013-04-23 19:15:00
2:35 PM,35.6,33.8,93,30.13,7.0,North,18.4,29.9,N/A,,Scattered Clouds,10,2013-04-23 19:35:00
2:55 PM,35.6,33.8,93,30.13,9.0,North,20.7,27.6,N/A,,Scattered Clouds,360,2013-04-23 19:55:00
3:15 PM,35.6,33.8,93,30.13,8.0,North,24.2,32.2,N/A,,Mostly Cloudy,10,2013-04-23 20:15:00
3:35 PM,35.6,33.8,93,30.12,10.0,North,19.6,26.5,N/A,,Mostly Cloudy,360,2013-04-23 20:35:00
3:55 PM,35.6,33.8,93,30.13,8.0,North,23.0,32.2,N/A,,Mostly Cloudy,10,2013-04-23 20:55:00
4:15 PM,35.6,32.0,87,30.13,10.0,North,19.6,28.8,N/A,,Mostly Cloudy,10,2013-04-23 21:15:00
4:35 PM,35.6,32.0,87,30.13,9.0,North,23.0,28.8,N/A,,Mostly Cloudy,360,2013-04-23 21:35:00
4:55 PM,35.6,32.0,87,30.14,10.0,North,21.9,28.8,N/A,,Mostly Cloudy,360,2013-04-23 21:55:00
5:15 PM,35.6,32.0,87,30.14,9.0,North,21.9,31.1,N/A,,Overcast,360,2013-04-23 22:15:00
5:35 PM,35.6,32.0,87,30.14,10.0,North,20.7,29.9,N/A,,Mostly Cloudy,10,2013-04-23 22:35:00
5:55 PM,35.6,32.0,87,30.15,7.0,North,17.3,26.5,N/A,,Mostly Cloudy,360,2013-04-23 22:55:00
6:15 PM,35.6,32.0,87,30.15,9.0,North,17.3,26.5,N/A,,Mostly Cloudy,10,2013-04-23 23:15:00
6:35 PM,33.8,32.0,93,30.16,7.0,North,16.1,27.6,N/A,,Mostly Cloudy,10,2013-04-23 23:35:00
6:55 PM,33.8,33.8,100,30.17,3.0,North,20.7,25.3,N/A,Rain,Light Rain,360,2013-04-23 23:55:00
7:15 PM,33.8,32.0,93,30.17,2.5,North,19.6,27.6,N/A,Rain,Light Rain,350,2013-04-24 00:15:00
7:35 PM,33.8,32.0,93,30.18,7.0,North,13.8,23.0,N/A,,Mostly Cloudy,10,2013-04-24 00:35:00
7:55 PM,33.8,32.0,93,30.18,8.0,North,13.8,20.7,N/A,,Overcast,360,2013-04-24 00:55:00
8:15 PM,33.8,32.0,93,30.19,10.0,North,15.0,20.7,N/A,,Overcast,10,2013-04-24 01:15:00
8:35 PM,33.8,32.0,93,30.20,10.0,North,17.3,24.2,N/A,,Overcast,360,2013-04-24 01:35:00
8:55 PM,33.8,32.0,93,30.21,10.0,North,13.8,21.9,N/A,,Overcast,360,2013-04-24 01:55:00
9:15 PM,33.8,30.2,87,30.23,10.0,North,17.3,21.9,N/A,,Overcast,350,2013-04-24 02:15:00
9:35 PM,33.8,28.4,81,30.24,10.0,North,16.1,-,N/A,,Overcast,350,2013-04-24 02:35:00
9:55 PM,33.8,28.4,81,30.24,10.0,North,18.4,25.3,N/A,,Overcast,360,2013-04-24 02:55:00
10:15 PM,33.8,28.4,81,30.25,10.0,North,12.7,20.7,N/A,,Overcast,360,2013-04-24 03:15:00
10:35 PM,33.8,28.4,81,30.25,10.0,NNE,15.0,-,N/A,,Overcast,20,2013-04-24 03:35:00
10:55 PM,33.8,28.4,81,30.26,10.0,North,13.8,-,N/A,,Overcast,360,2013-04-24 03:55:00
11:15 PM,33.8,28.4,81,30.26,10.0,North,9.2,18.4,N/A,,Overcast,360,2013-04-24 04:15:00
11:35 PM,33.8,28.4,81,30.27,10.0,North,13.8,19.6,N/A,,Overcast,350,2013-04-24 04:35:00
11:55 PM,33.8,28.4,81,30.28,10.0,North,13.8,17.3,N/A,,Overcast,350,2013-04-24 04:55:00